CZ-6A DEB

Satellite information

Favourite Embed

Satellite Type and Status

DEBRISIN ORBIT

Key statistics

Satellite CZ-6A DEB at a glance.

Uptime

910

Days in orbit

Revolutions

≈ 14.4

Per day

Orbit

SSO

Sun Synchronous Orbit

Inclination

99.1

Latest

Satellite identification and parameters

Extended collection of information and parameters for CZ-6A DEB.

Object identification

Identified? True

Debris? True

Object name: CZ-6A DEB

International designator: 2022-151SC

Object number (NORAD): 54939

Object ID (CCSDS): 54939

Country: PEOPLES REPUBLIC OF CHINA (PRC)

Current information (Y/N): Y

RCS size: SMALL

Orbital parameters

Period: 100.254 minutes

Inclination: 99.0782 deg

SMA: 7148.702 km

Apoapsis: 823.043 km

Periapsis: 718.092 km

RAAN: 194.1988 deg

Eccentricy: 0.0073406

Argument of periapsis: 212.1267 deg

Mean anomaly: 147.5433 deg

Mean motion: 14.36355478 rev/day

Mean motion (dot): 0.00004457 rev/day2

B* drag term: 0.0014925 1/REarth

Two-line elements (TLE)

Creation date: May 9, 2025, 2:46 a.m.

Reference frame: TEME

Reference center: EARTH

Epoch: May 8, 2025, 4:03 p.m. UTC

TLE line 0: 0 CZ-6A DEB

TLE line 1: 1 54939U 22151SC 25128.66899746 .00004457 00000-0 14925-2 0 9997

TLE line 2: 2 54939 99.0782 194.1988 0073406 212.1267 147.5433 14.36355478129306

Live tracking on map

Real-time ground track for satellite CZ-6A DEB.

In-orbit conjunctions

A list of the most updated potential collisions computed for object CZ-6A DEB.

Target Orbit TCA Probability of collision Miss distance Type
COSMOS 2251 DEB LEO 2024-11-09 09:56:13 0.0001130493 752.0 (m) DEBRIS
THOR BURNER 2 R/B SSO 2024-06-10 04:59:36 0.0001253765 152.0 (m) ROCKET BODY

Associated space launch

Chinese satellite reported for atmospheric/ocean/environmental/spatial parameter research purposes, details TBD.

CZ-6A DEB was lifted into orbit during the mission ‘Long March 6A | Yunhai 3’, on board a Long March 6A space rocket.

The launch took place on Nov. 11, 2022, 10:52 p.m. from Launch Complex 9A.

For more information about the launch, click the button.

Launch to space Long March 6A | Yunhai 3
Long March 6A | Yunhai 3

Agency: N/A

Status: Launch Successful

Launch date: Nov. 11, 2022, 10:52 p.m. UTC

Rocket: Long March 6A

Launch pad: Launch Complex 9A

Location: Taiyuan Satellite Launch Center, People's Republic of China

...

Latest news about this satellite

There are no fresh news available about this satellite. Check back as we update our databases every day.


Newsletter sign-up

Weekly statistics, charts and insights to help you stay on top of the space industry.